Regional Weather Roundup
Issued by NWS

Home | Current Version | Previous Version | Text Only | Print | Product List | Glossary Off
Versions: 1 2 3 4 5 6 7 8 9 10 11 12 13 14 15 16 17 18 19 20 21 22 23 24 25 26 27 28 29 30 31 32 33 34 35 36 37 38 39 40 41 42 43 44 45 46 47 48 49 50

000
ASUS43 KLOT 110603
RWRIL

ILLINOIS REGIONAL WEATHER ROUNDUP
NATIONAL WEATHER SERVICE CHICAGO/ROMEOVILLE IL
1200 AM CST MON DEC 11 2017

NOTE: "FAIR" INDICATES FEW OR NO CLOUDS BELOW 12,000 FEET WITH NO
SIGNIFICANT WEATHER AND/OR OBSTRUCTIONS TO VISIBILITY.

* THESE STATIONS ARE NOT UNDER NWS QUALITY CONTROL. THEY ALSO MAY NOT
  REPORT WEATHER SUCH AS PRECIPITATION OR FOG.

ILZ001-002-007-009-015-016-024-110700-
NORTHWEST ILLINOIS

CITY           SKY/WX    TMP DP  RH WIND       PRES   REMARKS
MOLINE         CLOUDY    23  19  85 E5        30.06F WCI  17
6HR MIN TEMP:  20; 6HR MAX TEMP:  34;

STERLING*      CLOUDY    16  14  92 CALM      30.07F
SAVANNA*       CLOUDY    18  16  89 CALM      30.08S
$$

ILZ003-004-008-010-011-017-018-110700-
NORTH CENTRAL ILLINOIS

CITY           SKY/WX    TMP DP  RH WIND       PRES   REMARKS
ROCKFORD       CLOUDY    20  17  88 S5        30.08F WCI  13
6HR MIN TEMP:  19; 6HR MAX TEMP:  30;

FREEPORT*      CLOUDY    16  14  90 CALM      30.07F
ROCHELLE*      CLOUDY    15  12  89 CALM      30.07F
DE KALB*       CLOUDY    20  17  85 CALM      30.07S
PERU*          CLOUDY    23  19  84 CALM      30.09F
$$

ILZ005-006-012>014-019>023-110700-
NORTHEAST ILLINOIS

CITY           SKY/WX    TMP DP  RH WIND       PRES   REMARKS
CHICAGO-OHARE  MOCLDY    28  18  66 N5        30.06F WCI  23
6HR MIN TEMP:  26; 6HR MAX TEMP:  31;

CHICAGO-MIDWAY MOCLDY    29  19  66 NW3       30.08S
6HR MIN TEMP:  29; 6HR MAX TEMP:  31;

AURORA         CLOUDY    18  14  84 CALM      30.07F
6HR MIN TEMP:  18; 6HR MAX TEMP:  29;

LANSING*       CLOUDY    28  21  74 CALM      30.09S
WAUKEGAN       CLOUDY    24  17  74 CALM      30.05F
6HR MIN TEMP:  24; 6HR MAX TEMP:  28;

DUPAGE AIRPORT PTCLDY    20  17  88 CALM      30.07S
6HR MIN TEMP:  20; 6HR MAX TEMP:  30;

KANKAKEE*      CLOUDY    23  18  81 SW3       30.11S
WHEELING       MOCLDY    28  18  66 CALM      30.08F
6HR MIN TEMP:  27; 6HR MAX TEMP:  30;

MORRIS*        CLOUDY    22  18  83 W3        30.07F
ROMEOVILLE*    CLEAR     24  20  85 CALM      30.08F
NORTHERLY ISL    N/A     29  19  66 W8          N/A  WCI  21
$$

LMZ740>746-110700-
SOUTHERN LAKE MICHIGAN

STATION/POSITION SKY/WX   TEMP    WIND        PRES    VSBY  WAVE
                          AIR SEA DIR/SP/G                  HT/PER
                          (F)     (DEG/KT/KT) (MB)    (MI)  (FT/S)
HARRISON CRIB              30     300/ 11/ 12   N/A
BURNHAM HARBOR             29     260/  6/ 11   N/A
CALUMET HARBOR             28     290/  4/  6 1018.1F
BURNS HARBOR               31     340/  6/ 11 1019.0R
MICHIGAN CITY              31     310/  9/ 13   N/A
$$

ILZ025>027-034>036-040-047-049-050-058-095>099-110700-
WEST-CENTRAL ILLINOIS

CITY           SKY/WX    TMP DP  RH WIND       PRES   REMARKS
QUINCY         CLEAR     29  23  78 S6        30.09F WCI  23
MACOMB*        CLOUDY    28  23  82 S6        30.10F WCI  22
JACKSONVILLE*  CLOUDY    25  21  84 CALM      30.11F
PITTSFIELD*    CLEAR     25  21  83 CALM      30.11F
$$

ILZ028>032-037-038-041>044-048-051>054-059>061-110700-
CENTRAL ILLINOIS

CITY           SKY/WX    TMP DP  RH WIND       PRES   REMARKS
PONTIAC        CLOUDY    18  16  94 CALM      30.10F
BLOOMINGTON    CLOUDY    23  20  88 CALM      30.10F
DECATUR        CLOUDY    25  21  85 CALM      30.11F
PEORIA         CLOUDY    24  19  81 CALM      30.09F
6HR MIN TEMP:  23; 6HR MAX TEMP:  33;

LACON*         CLOUDY    20  18  91 CALM      30.08F
LINCOLN*       CLOUDY    24  22  89 CALM      30.11F
SPRINGFIELD    CLOUDY    25  20  81 SW6       30.12F WCI  18
6HR MIN TEMP:  23; 6HR MAX TEMP:  37;

TAYLORVILLE    CLOUDY    24  20  85 CALM      30.12F
6HR MIN TEMP:  23; 6HR MAX TEMP:  35;

$$

ILZ033-039-045-046-055>057-062-063-110700-
EAST-CENTRAL ILLINOIS

CITY           SKY/WX    TMP DP  RH WIND       PRES   REMARKS
CHAMPAIGN      CLOUDY    19  16  88 S5        30.11S WCI  12
DANVILLE*      CLOUDY    22  18  86 CALM      30.08S
RANTOUL*       CLOUDY    24  20  86 CALM      30.11S
MATTOON        CLOUDY    27  22  81 CALM      30.11S
PARIS*         CLOUDY    21  19  91 CALM      30.12F
$$

ILZ079-100>102-110700-
SOUTHWEST ILLINOIS

CITY           SKY/WX    TMP DP  RH WIND       PRES   REMARKS
ALTON          CLEAR     25  22  89 CALM      30.13F
BELLEVILLE     CLEAR     28  22  79 CALM      30.12F
CAHOKIA*       CLEAR     27  21  78 CALM      30.13F
$$

ILZ064>066-069>071-074>076-080>082-084>086-088>090-092>094-110700-
SOUTH-CENTRAL ILLINOIS

CITY           SKY/WX    TMP DP  RH WIND       PRES   REMARKS
CARBONDALE     CLEAR     25  24  96 CALM      30.15S
6HR MIN TEMP:  25; 6HR MAX TEMP:  43;

CAIRO*         CLEAR     32  30  92 CALM      30.16S
EFFINGHAM*     CLEAR     27  24  91 CALM      30.14F
MARION         CLEAR     33  31  92 CALM      30.16S
MT. VERNON     CLEAR     22  20  92 CALM      30.15S
CENTRALIA*     CLEAR     28  26  89 CALM      30.13S
SALEM*         CLEAR     30  24  79 CALM      30.14R
METROPOLIS*    CLEAR     30  28  91 CALM      30.16F
$$

ILZ067-068-072-073-078-083-087-091-110700-
SOUTHEAST ILLINOIS

CITY           SKY/WX    TMP DP  RH WIND       PRES   REMARKS
LAWRENCEVILLE  CLEAR     33  24  69 N3        30.15R
FLORA*         CLEAR     30  24  78 CALM      30.15S
FAIRFIELD*     CLEAR     29  25  85 CALM      30.14S
HARRISBURG*    CLEAR     30  27  90 CALM      30.16S
ROBINSON*      CLEAR     28  23  84 CALM      30.15S
CARMI*         CLEAR     29  26  88 CALM      30.14F
$$

ABBREVIATIONS USED IN REMARKS
   TC - TEMPERATURE IN CELSIUS
  WCI - WIND CHILL INDEX
   HX - HEAT INDEX
  VSB - VISIBILITY
$$





USA.gov is the U.S. government's official web portal to all federal, state and local government web resources and services.